Location: Ashton River Estates
(39.1762°N, 77.0261°W)
Time: 23:59:56
(UTC+00:00)

CZ-2D R/B - Pass Details

Date: 29 October 2020
Orbit: 522 x 537 km, 97.4° (Epoch: 03 December)

Event Time Altitude Azimuth Distance (km) Brightness Sun altitude
Rises 23:39:22 0° 172° (S) 2,647 6.8 -17.8°
Reaches altitude 10° 23:41:28 10° 174° (S) 1,761 5.9 -18.3°
Maximum altitude 23:45:15 71° 258° (WSW) 559 3.4 -19.0°
Drops below altitude 10° 23:49:03 10° 344° (NNW) 1,768 6.1 -19.7°
Sets 23:51:10 0° 346° (NNW) 2,660 7.0 -20.1°
